Tracking 28790 objects as of 19-Apr-2024
HD Live streaming from Space Station
objects crossing your sky now

CZ-4B DEB

Track CZ-4B DEB now!
10-day predictions


NORAD ID: 40533
Int'l Code: 2013-057F
Perigee: 591.2 km
Apogee: 865.6 km
Inclination: 74.9 °
Period: 99.2 minutes
Semi major axis: 7099 km
RCS: Unknown
Launch date: October 25, 2013
Source: People's Republic of China (PRC)
Launch site: Jiuquan Satellite Launch Center, China (JSC)

Note: This is SATELLITE DEBRIS
Your satellite tracking list
Your tracking list is empty




NASA's NSSDC Master Catalog

Two Line Element Set (TLE):
1 40533U 13057F   24109.07708673  .00009520  00000-0  18758-2 0  9992
2 40533  74.9243 137.7787 0193285 227.8848 130.5753 14.51351939478287
Source of the keplerian elements: AFSPC